TimeEDT,TemperatureF,Dew PointF,Humidity,Sea Level PressureIn,VisibilityMPH,Wind Direction,Wind SpeedMPH,Gust SpeedMPH,PrecipitationIn,Events,Conditions,WindDirDegrees,DateUTC
12:56 AM,46.4,37.4,71,29.60,10.0,West,6.9,-,N/A,,Overcast,270,2012-11-02 04:56:00
1:56 AM,46.4,37.4,71,29.58,10.0,West,29.9,-,N/A,,Overcast,260,2012-11-02 05:56:00
2:56 AM,46.4,37.4,71,29.60,10.0,West,9.2,-,N/A,,Mostly Cloudy,270,2012-11-02 06:56:00
3:56 AM,46.4,37.4,71,29.60,10.0,West,5.8,-,N/A,,Overcast,260,2012-11-02 07:56:00
4:56 AM,46.4,37.4,71,29.60,10.0,West,8.1,-,N/A,,Overcast,270,2012-11-02 08:56:00
5:56 AM,46.4,37.4,71,29.60,10.0,West,6.9,-,N/A,,Overcast,270,2012-11-02 09:56:00
6:56 AM,46.4,37.4,71,29.60,10.0,West,8.1,-,N/A,,Mostly Cloudy,280,2012-11-02 10:56:00
7:56 AM,46.4,37.4,71,29.62,10.0,West,6.9,-,N/A,,Mostly Cloudy,270,2012-11-02 11:56:00
8:56 AM,46.0,36.0,68,29.63,10.0,West,9.2,-,N/A,,Mostly Cloudy,280,2012-11-02 12:56:00
9:56 AM,48.0,36.0,63,29.64,10.0,WNW,10.4,-,N/A,,Mostly Cloudy,300,2012-11-02 13:56:00
10:56 AM,50.0,35.1,57,29.62,10.0,WNW,15.0,-,N/A,,Mostly Cloudy,300,2012-11-02 14:56:00
11:56 AM,51.1,35.1,54,29.61,10.0,NW,13.8,-,N/A,,Scattered Clouds,310,2012-11-02 15:56:00
12:56 PM,50.0,32.0,50,29.60,10.0,WNW,9.2,-,N/A,,Mostly Cloudy,300,2012-11-02 16:56:00
1:03 PM,50.0,28.4,43,29.59,10.0,WNW,13.8,21.9,N/A,,Overcast,300,2012-11-02 17:03:00
1:56 PM,48.9,30.0,48,29.60,10.0,WNW,16.1,-,N/A,,Mostly Cloudy,300,2012-11-02 17:56:00
2:56 PM,48.0,30.9,52,29.61,10.0,NW,13.8,21.9,N/A,,Mostly Cloudy,320,2012-11-02 18:56:00
3:56 PM,48.0,30.0,50,29.61,10.0,WNW,11.5,17.3,N/A,,Overcast,290,2012-11-02 19:56:00
4:56 PM,46.9,30.9,54,29.63,10.0,West,9.2,-,N/A,,Mostly Cloudy,280,2012-11-02 20:56:00
5:56 PM,46.9,30.0,52,29.65,10.0,West,11.5,21.9,N/A,,Overcast,280,2012-11-02 21:56:00
6:56 PM,46.0,33.1,61,29.67,10.0,WNW,17.3,23.0,N/A,,Overcast,300,2012-11-02 22:56:00
7:56 PM,45.0,32.0,60,29.69,10.0,WNW,16.1,25.3,N/A,,Overcast,290,2012-11-02 23:56:00
8:56 PM,44.1,30.9,60,29.71,10.0,NW,20.7,28.8,N/A,,Mostly Cloudy,310,2012-11-03 00:56:00
9:56 PM,42.1,30.9,65,29.73,10.0,WNW,17.3,27.6,N/A,,Mostly Cloudy,300,2012-11-03 01:56:00
10:56 PM,42.1,32.0,67,29.73,10.0,WNW,12.7,21.9,N/A,,Mostly Cloudy,290,2012-11-03 02:56:00
11:56 PM,42.1,32.0,67,29.73,10.0,WNW,16.1,23.0,N/A,,Mostly Cloudy,300,2012-11-03 03:56:00